Regional Weather Roundup
Issued by NWS

Home | Current Version | Previous Version | Text Only | Print | Product List | Glossary Off
Versions: 1 2 3 4 5 6 7 8 9 10 11 12 13 14 15 16 17 18 19 20 21 22 23 24 25 26 27 28 29 30 31 32 33 34 35 36 37 38 39 40 41 42 43 44 45 46 47 48 49 50

000
ASUS45 KCYS 280510
RWRWY

WYOMING REGIONAL WEATHER ROUNDUP
NATIONAL WEATHER SERVICE CHEYENNE WY
1100 PM MDT SUN JUL 27 2014

NOTE:  "FAIR" INDICATES FEW OR NO CLOUDS BELOW 12,000 FEET
WITH NO SIGNIFICANT WEATHER AND/OR OBSTRUCTIONS TO VISIBILITY.

WYZ001-280600-
YELLOWSTONE NATIONAL PARK

CITY           SKY/WX    TMP DP  RH WIND       PRES   REMARKS
LK YELLOWSTONE   N/A     51  36  56 NW3       30.51R
W YELLOWSTONE  NOT AVBL

$$
WYZ002>013-054>058-071-098>099-280600-
NORTHERN WYOMING

CITY           SKY/WX    TMP DP  RH WIND       PRES   REMARKS
JACKSON        CLEAR     61  36  39 N10       30.36R
CODY           NOT AVBL
GREYBULL       PTCLDY    76  40  27 CALM      30.20R
WORLAND        MOCLDY    77  36  22 SE12      30.22S
SHERIDAN       CLEAR     58  49  72 SW7       30.30R
BUFFALO        PTCLDY    64  40  41 SW5       30.38R
GILLETTE       PTCLDY    58  43  57 CALM      30.32S
HULETT         FAIR      64  50  59 MISG      30.34
NEWCASTLE      FAIR      68  41  37 CALM      30.33

$$
WYZ014>020-022>026-101>103-280600-
CENTRAL WYOMING

CITY           SKY/WX    TMP DP  RH WIND       PRES   REMARKS
BIG PINEY      CLEAR     58  32  37 NW5       30.42R
PINEDALE       PTCLDY    59  34  38 CALM      30.42R
DUBOIS         FAIR      61  27  27 W3        30.45S
LANDER         CLEAR     71  29  21 SW14      30.30S
RIVERTON       CLEAR     73  31  21 E7        30.31S
CASPER         CLEAR     69  45  41 NE10      30.32S
DOUGLAS        CLEAR     69  46  43 SE12      30.35R

$$
WYZ021-027>030-104>119-280600-
SOUTHERN WYOMING

CITY           SKY/WX    TMP DP  RH WIND       PRES   REMARKS
EVANSTON       PTCLDY    73  21  14 E3        30.38R
KEMMERER       CLEAR     64  25  22 N15G21    30.41R
FORT BRIDGER   FAIR      75  17  11 SE5       30.40R
ROCK SPRINGS   CLEAR     68  23  18 E14       30.36R
DIXON          FAIR      67  36  31 E6        30.37R
RAWLINS        CLEAR     66  53  63 E10       30.41S
SARATOGA       FAIR      64  50  59 CALM      30.42R
LARAMIE        CLEAR     61  48  62 SE8       30.46S
CHEYENNE       PTCLDY    64  47  53 SE10      30.42S
TORRINGTON     CLEAR     69  49  48 E15       30.30R
PINE BLUFFS    FAIR      68  45  42 SE7       30.38S

$$


USA.gov is the U.S. government's official web portal to all federal, state and local government web resources and services.